#timestamp,LO_Frequency,Hit,StdDev 
1539374415.6,286046998.3,N
1539374435.4,286047000.1,N
1539374455.3,286046999.7,N
1539374475.1,286047000.1,N
1539374476.0,286047000.1,N
1539374495.8,286047000.8,N
1539374515.7,286047001.2,N
1539374535.5,286047000.6,N
1539374555.3,286046998.9,N
1539374575.2,286047000.7,N
1539374595.0,286046998.7,N
1539374595.9,286046998.7,N
1539374615.8,286046998.4,N
1539374635.6,286046998.9,N
1539374655.4,286046999.3,N
1539374675.3,286046998.6,N
1539374695.1,286046998.9,N
1539374715.9,286047000.1,N
1539374735.7,286047002.2,N
1539374755.5,286047002.4,N
1539374775.4,286047002.4,N
1539374795.2,286047000.3,N
1539374815.0,286047000.7,N
1539374815.9,286047000.7,N
1539374835.8,286046999.8,N
1539374855.6,286047002.0,N
1539374875.5,286047000.0,N
1539374895.3,286047000.1,N
1539374915.1,286047000.3,N
1539374935.9,286047000.6,N
1539374955.7,286047000.6,N
1539374975.5,286047001.0,N
1539374995.4,286047001.0,N
1539375015.2,286046998.5,N
1539375035.1,286046998.4,N
1539375036.0,286046998.4,N
1539375055.8,286047001.1,N
1539375075.6,286046998.3,N
1539375095.5,286047000.9,N
1539375115.3,286046999.9,N
1539375135.1,286047000.5,N
1539375155.9,286047000.5,N
1539375175.7,286046999.7,N
1539375195.6,286047000.5,N
1539375215.4,286046998.4,N
1539375235.2,286046998.8,N
1539375255.1,286046999.3,N
1539375256.0,286046999.3,N
1539375275.8,286046998.4,N
1539375295.6,286046999.4,N
1539375315.5,286046999.0,N
1539375335.3,286046999.1,N
1539375355.2,286046997.2,N
1539375375.9,286046999.3,N
1539375395.7,286046998.4,N
1539375415.6,286047000.8,N
1539375435.4,286046998.3,N
1539375455.2,286046996.8,Y
1539375475.1,286046998.5,P
1539375476.0,286046998.5,N
1539375495.8,286047002.3,P
1539375515.7,286047000.6,N
1539375535.5,286047001.0,N
1539375555.3,286047002.6,N
1539375575.2,286046999.7,N
1539375595.0,286047002.1,N
1539375595.9,286047002.1,N
1539375615.7,286047000.4,N
1539375635.6,286046998.3,N
1539375655.4,286047000.1,N
1539375675.3,286047002.3,N
1539375695.1,286046999.7,N
1539375715.8,286047000.7,N
1539375735.7,286047002.7,N
1539375755.3,286047000.8,N
1539375775.1,286047002.7,N
1539375795.9,286046999.8,N
1539375815.7,286047002.6,N
1539375835.6,286047002.3,N
1539375855.4,286047000.5,N
1539375875.2,286047002.4,N
1539375895.1,286047002.7,N
1539375896.0,286047002.7,N
1539375915.8,286047002.2,N
1539375935.6,286046999.7,N
1539375955.5,286047000.1,N
1539375975.3,286047002.4,N
1539375995.2,286047002.5,N
1539376015.9,286047000.5,N
1539376035.7,286047001.1,N
1539376055.6,286047001.1,N
1539376075.4,286047000.6,N
1539376095.2,286047000.5,N
1539376115.1,286047002.4,N
1539376116.0,286047002.4,N
1539376135.8,286047002.7,N
1539376155.7,286047002.3,N
1539376175.5,286047002.1,N
1539376195.3,286047000.1,N
1539376215.2,286047000.1,N
1539376235.0,286047000.1,N
1539376235.9,286047000.1,N
1539376255.7,286047000.1,N
1539376275.6,286047002.5,N
1539376295.4,286047004.1,Y
1539376315.3,286047002.3,P
1539376335.1,286047001.7,P
1539376355.8,286047001.7,P
1539376375.7,286047002.3,Y
1539376395.5,286047001.0,P
1539376415.4,286047001.1,N
1539376435.2,286047001.0,N
1539376455.0,286046998.3,Y
1539376455.9,286046998.3,P
1539376475.8,286046996.7,N
1539376495.6,286046996.8,N
1539376515.4,286046997.1,N
1539376535.3,286046997.1,N
1539376555.1,286046997.5,N
1539376575.9,286046997.3,N
1539376595.7,286046997.4,N
1539376615.5,286046997.9,N
1539376635.4,286046998.0,N
1539376655.2,286046996.1,Y
1539376675.1,286046996.9,P
1539376676.0,286046996.9,P
1539376695.8,286046999.4,N
1539376715.6,286046999.5,N
1539376735.5,286046999.1,N
1539376755.3,286046996.7,N
1539376775.2,286046999.3,N
1539376795.9,286047000.7,N
1539376815.7,286046998.8,N
1539376835.6,286046999.1,N
1539376855.4,286047001.2,N
1539376875.2,286046998.1,N
1539376895.1,286047000.6,N
1539376896.0,286047000.6,N
1539376915.8,286047000.0,N
1539376935.7,286047002.8,N
1539376955.5,286047002.4,N
1539376975.3,286047003.6,N
1539376995.2,286047007.6,Y
1539377015.0,286047015.6,P
1539377015.9,286047015.6,N
1539377035.8,286047011.6,N
1539377055.6,286047010.7,N
1539377075.4,286047008.4,N
1539377095.3,286047008.6,N
1539377115.1,286047007.2,N
1539377135.8,286047004.6,N
1539377155.7,286047006.5,N
1539377175.5,286047006.7,N
1539377195.4,286047005.3,N
1539377215.2,286047005.4,N
1539377235.0,286047005.7,N
1539377235.9,286047005.7,N
1539377255.8,286047005.5,N
1539377275.6,286047003.1,N
1539377295.5,286047005.7,N
1539377315.3,286047003.1,N
1539377335.1,286047001.4,N
1539377355.9,286047001.6,N
1539377375.7,286047002.2,N
1539377395.5,286047001.7,N
1539377415.4,286047002.0,N
1539377435.2,286047002.0,N
1539377455.1,286047001.5,N
1539377456.0,286047001.5,N
1539377475.8,286047001.7,N
1539377495.6,286047001.3,N
1539377515.5,286047004.3,N
1539377535.3,286047002.0,N
1539377555.1,286047000.6,N
1539377575.9,286047000.4,N
1539377595.7,286047002.7,N
1539377615.6,286047003.9,N
1539377635.4,286047001.9,N
1539377655.2,286047001.9,N
1539377675.1,286047002.3,N
1539377676.0,286047002.3,N
1539377695.8,286047000.5,N
1539377715.7,286047000.4,N
1539377735.5,286047001.2,N
1539377755.3,286047001.1,N
1539377775.2,286047000.6,N
1539377795.0,286047000.7,N
1539377795.9,286047000.7,N
1539377815.7,286047000.9,N
1539377835.6,286047000.0,N
1539377855.4,286046999.9,N
1539377875.3,286046998.3,N
1539377895.1,286047001.2,N
1539377896.0,286047001.2,N
1539377915.8,286046998.6,N
1539377935.7,286046998.1,N
1539377955.5,286047000.8,N
1539377975.3,286046998.8,N
1539377995.2,286047001.2,N
